EW5523 Weather Reports


time (UTC)temp
C
wind
direction
speed
KPH
gust
KPH
rain 1hr
cm
rain 24hr
cm
rain mn
cm
humidity
%
barometer
mb
20260503200014 8 152 0.0 0.0 0.00 0.00 0.00 50 1012.5
20260503194515 8 152 0.0 0.0 0.00 0.00 0.00 49 1012.8
20260503193013 8 152 0.0 0.0 0.00 0.00 0.00 49 1012.8
20260503191511 9 152 0.0 0.0 0.00 0.00 0.00 48 1012.9
20260503190009 9 152 0.0 0.0 0.00 0.00 0.00 47 1012.9
20260503184516 10 152 0.0 0.0 0.00 0.00 0.00 46 1012.9
20260503183009 10 152 0.0 0.0 0.00 0.00 0.00 45 1013.0
20260503181507 10 152 0.0 0.0 0.00 0.00 0.00 46 1013.1
20260503180006 10 152 0.0 0.0 0.00 0.00 0.00 46 1013.2
20260503174504 10 152 0.0 0.0 0.00 0.00 0.00 47 1013.3
20260503173005 10 152 0.0 0.0 0.00 0.00 0.00 47 1013.3
20260503171507 10 152 0.0 0.0 0.00 0.00 0.00 46 1013.4
20260503081508 13 291 0.0 9.7 0.00 0.00 0.00 40 1018.3
20260503071612 12 271 0.0 9.7 0.00 0.00 0.00 40 1018.9
20260503071502 12 224 0.0 9.7 0.00 0.00 0.00 41 1018.8
20260503054559 11 257 0.0 12.9 0.00 0.00 0.00 45 1019.4
20260503053048 11 134 0.0 6.4 0.00 0.00 0.00 47 1019.4
20260503051546 10 266 1.6 9.7 0.00 0.00 0.00 47 1019.5
20260503050048 10 285 0.0 6.4 0.00 0.00 0.00 47 1019.7
20260503044550 10 179 0.0 8.0 0.00 0.00 0.00 49 1019.7
20260503043046 9 151 0.0 3.2 0.00 0.00 0.00 49 1019.8
20260503041535 8 176 0.0 6.4 0.00 0.00 0.00 50 1019.8
20260503040038 8 223 0.0 4.8 0.00 0.00 0.00 52 1019.8
20260503034530 7 176 0.0 1.6 0.00 0.00 0.00 55 1019.8
20260503033026 7 222 0.0 8.0 0.00 0.00 0.00 55 1019.7
20260503031528 6 258 0.0 6.4 0.00 0.00 0.00 56 1019.8
20260503030020 6 230 0.0 0.0 0.00 0.00 0.00 58 1019.7
20260503024517 5 248 0.0 1.6 0.00 0.00 0.00 58 1019.7
20260503023015 5 206 0.0 0.0 0.00 0.00 0.00 60 1019.7
20260503021516 4 226 0.0 0.0 0.00 0.00 0.00 61 1019.6
20260503020013 3 225 0.0 0.0 0.00 0.00 0.00 63 1019.7
20260503014513 3 222 0.0 0.0 0.00 0.00 0.00 64 1019.6
20260503013014 3 222 0.0 0.0 0.00 0.00 0.00 65 1019.7
20260503011511 2 222 0.0 0.0 0.00 0.00 0.00 66 1019.6
20260503010011 2 222 0.0 0.0 0.00 0.00 0.00 66 1019.7
20260503004513 2 223 0.0 0.0 0.00 0.00 0.00 65 1019.6
20260503003009 2 223 0.0 0.0 0.00 0.00 0.00 64 1019.7
20260503001506 3 223 0.0 0.0 0.00 0.00 0.00 63 1019.7
20260503000005 3 222 0.0 0.0 0.00 0.00 0.00 62 1019.6
20260502234503 3 219 0.0 0.0 0.00 0.00 0.00 62 1019.6
20260502233002 3 212 0.0 0.0 0.00 0.00 0.00 61 1019.5
20260502231501 3 217 0.0 1.6 0.00 0.00 0.00 60 1019.6
20260502230100 3 213 0.0 0.0 0.00 0.00 0.00 60 1019.6
20260502224558 3 214 0.0 0.0 0.00 0.00 0.00 60 1019.5
20260502223057 3 213 0.0 0.0 0.00 0.00 0.00 59 1019.4
20260502221612 3 230 0.0 0.0 0.00 0.00 0.00 59 1019.4
20260502220101 4 232 0.0 0.0 0.00 0.00 0.00 58 1019.4
20260502214553 4 231 0.0 0.0 0.00 0.00 0.00 58 1019.3
20260502213052 4 230 0.0 0.0 0.00 0.00 0.00 58 1019.3
20260502211550 4 230 0.0 0.0 0.00 0.00 0.00 57 1019.4
20260502210107 4 222 0.0 0.0 0.00 0.00 0.00 57 1019.3
20260502204549 5 221 0.0 1.6 0.00 0.00 0.00 57 1019.2
20260502203048 5 226 0.0 0.0 0.00 0.00 0.00 57 1019.2
20260502201550 5 226 0.0 0.0 0.00 0.00 0.00 56 1019.1